{"data":{"norad_id":63874,"epoch":"2026-09-20T14:36:58.603104Z","epoch_age_seconds":137562,"freshness":"FRESH","line1":"1 63874U 25094L   26263.60901161  .00006998  00000+0  24759-3 0  9992","line2":"2 63874  69.9982 100.4715 0003444 280.8199  79.2589 15.29586919 76461","mean_motion":15.29586919,"eccentricity":0.0003444,"inclination_deg":69.9982,"raan_deg":100.4715,"arg_perigee_deg":280.8199,"mean_anomaly_deg":79.2589,"bstar":0.00024759,"rev_number":7646,"period_min":94.143064517146,"perigee_km":474.68530507103,"apogee_km":479.40715527997,"semimajor_km":6855.1832301755,"source":"CELESTRAK","updated_at":"2026-09-21T09:00:35.139148Z"}}